Location: Unnamed
(54.5186°N, 36.2255°E)
Time: 21:42:39
(UTC+03:00)

ISS - Pass Details

Date: 17 February 2026
Orbit: 416 x 427 km, 51.6° (Epoch: 6 March)

Event Time Altitude Azimuth Distance (km) Brightness Sun altitude
Exits shadow 06:06:07 13° 202° (SSW) 1,311 -1.5 -16.0°
Maximum altitude 06:08:18 24° 153° (SSE) 919 -1.8 -15.7°
Drops below altitude 10° 06:11:03 10° 98° (E) 1,495 0.4 -15.3°
Sets 06:13:24 0° 84° (E) 2,360 1.9 -14.9°
